Regional Weather Roundup
Issued by NWS

Home | Current Version | Previous Version | Graphics & Text | Print | Product List | Glossary On
Versions: 1 2 3 4 5 6 7 8 9 10 11 12 13 14 15 16 17 18 19 20 21 22 23 24 25 26 27 28 29 30 31 32 33 34 35 36 37 38 39 40 41 42 43 44 45 46 47 48 49 50
062
ASUS43 KOAX 082302
RWRNE

WEATHER ROUNDUP FOR NEBRASKA
NATIONAL WEATHER SERVICE OMAHA NE
500 PM CST THU DEC 08 2016

NOTES: SATELLITE DATA IS BEING USED TO AUGMENT CLOUD COVER ABOVE
       12000 FEET.
       "FAIR" INDICATES FEW OR NO CLOUDS BELOW 12,000 FEET WITH NO
       SIGNIFICANT WEATHER AND/OR OBSTRUCTIONS TO VISIBILITY.

  * THESE STATIONS DO NOT REPORT WEATHER SUCH AS RAIN...SNOW OR FOG.

NEZ001>004-019>022-054>056-090000-
NEBRASKA PANHANDLE

CITY           SKY/WX    TMP DP  RH WIND       PRES   REMARKS
SCOTTSBLUFF    CLEAR     15   1  53 E8        30.40F WCI   4
ALLIANCE       CLEAR     14  -1  51 SE6       30.41S WCI   5
CHADRON        CLEAR     11  -4  51 NE7       30.46F WCI   0
KIMBALL        CLOUDY    11   6  79 S6        30.34S WCI   1
SIDNEY         CLEAR     12   1  61 S8        30.40F WCI   0
$$

NEZ057>060-069>072-079>082-090000-
SOUTHWEST NEBRASKA

CITY           SKY/WX    TMP DP  RH WIND       PRES   REMARKS
NORTH PLATTE   CLEAR     20  -1  40 CALM      30.53F
IMPERIAL       CLEAR     17   0  47 CALM      30.51S
LEXINGTON      CLEAR     20   1  43 NW5       30.57S WCI  14
MCCOOK         CLEAR     15   3  59 S6        30.57S WCI   6
OGALLALA       CLEAR     18   2  50 CALM      30.49F
$$

NEZ005>010-023>029-035>040-094-090000-
NORTH CENTRAL NEBRASKA

CITY           SKY/WX    TMP DP  RH WIND       PRES   REMARKS
VALENTINE      CLEAR     11  -3  53 NW8       30.56S WCI  -1
AINSWORTH      CLEAR     13   0  55 NW7       30.56S WCI   3
BROKEN BOW     CLEAR     17  -1  45 NW6       30.55S WCI   9
O`NEILL        CLEAR     16   2  54 NW10      30.59S WCI   3
ORD            CLEAR     18  -1  43 NW6       30.58S WCI  10
THEDFORD       CLEAR     16  -2  44 N5        30.53S WCI   9
$$

NEZ041-046>049-061>064-073>077-083>087-090000-
SOUTH CENTRAL NEBRASKA

CITY           SKY/WX    TMP DP  RH WIND       PRES   REMARKS
GRAND ISLAND   CLEAR     20   5  52 NW6       30.61S WCI  12
AURORA         CLEAR     20   4  49 N6        30.60F WCI  13
HASTINGS       CLEAR     21   4  47 N7        30.61S WCI  12
HEBRON         CLEAR     23   7  50 NW6       30.63S WCI  16
HOLDREGE       CLEAR     20   3  46 NW3       30.57F
KEARNEY *      CLEAR     21   0  39 N5        30.58F WCI  15
YORK           CLEAR     19   7  58 N6        30.61S WCI  11
$$

NEZ011>018-030>034-042>045-090000-
NORTHEAST NEBRASKA

CITY           SKY/WX    TMP DP  RH WIND       PRES   REMARKS
NORFOLK        CLEAR     18   3  52 NW10      30.60R WCI   6
ALBION         CLEAR     19   3  50 NW6       30.60S WCI  11
BLAIR          CLEAR     22   9  57 NW9       30.59S WCI  11
FREMONT        CLEAR     21   8  58 NW9       30.62S WCI  10
TEKAMAH        CLEAR     21   7  54 NW14      30.62R WCI   8
WAYNE          CLEAR     18   6  60 NW7       30.61R WCI   8
$$

NEZ050>053-065>068-078-088>093-090000-
SOUTHEAST NEBRASKA

CITY           SKY/WX    TMP DP  RH WIND       PRES   REMARKS
LINCOLN        CLEAR     24   7  48 NW9       30.64S WCI  14
OMAHA EPPLEY   PTCLDY    21   8  57 NW10      30.62R WCI  10
BEATRICE       CLEAR     23  10  55 NW8       30.62S WCI  14
FALLS CITY     CLEAR     22  10  60 NW12      30.63R WCI  10
NEBRASKA CITY  CLEAR     22   5  47 NW8G16    30.62R WCI  13
PLATTSMOUTH    CLEAR     22   6  49 NW9       30.61R WCI  11
$$

NEZ044-045-051>053-067-090000-
OMAHA AREA

CITY           SKY/WX    TMP DP  RH WIND       PRES   REMARKS
OMAHA EPPLEY   PTCLDY    21   8  57 NW10      30.62R WCI  10
BLAIR          CLEAR     22   9  57 NW9       30.59S WCI  11
FREMONT        CLEAR     21   8  58 NW9       30.62S WCI  10
MILLARD        CLEAR     26   9  50 NW8G17    30.62S WCI  17
OFFUTT AFB     CLEAR     22   8  53 NW10      30.62R WCI  12
PLATTSMOUTH    CLEAR     22   6  49 NW9       30.61R WCI  11
WAHOO          FAIR      21   8  55 NW7       30.63R WCI  13
$$




USA.gov is the U.S. government's official web portal to all federal, state and local government web resources and services.